Waarnemingen

Advertentie
Mijn weer
Figari, Frankrijk (7780): temperatuur & dauwpunt: 14.05.2019 06:00:00 - 20.05.2019 06:00:00 (CEST)Figari, Frankrijk (7780): temperatuur 5cm: 14.05.2019 06:00:00 - 20.05.2019 06:00:00 (CEST)Figari, Frankrijk (7780): windsnelheid & windstoten: 14.05.2019 06:00:00 - 20.05.2019 06:00:00 (CEST)Figari, Frankrijk (7780): windrichting: 14.05.2019 06:00:00 - 20.05.2019 06:00:00 (CEST)Figari, Frankrijk (7780): luchtdruk: 14.05.2019 06:00:00 - 20.05.2019 06:00:00 (CEST)Figari, Frankrijk (7780): zicht: 14.05.2019 06:00:00 - 20.05.2019 06:00:00 (CEST)Figari, Frankrijk (7780): neerslag: 14.05.2019 06:00:00 - 20.05.2019 06:00:00 (CEST)
Datum & Tijd tt [°C] td [°C] tt 5cm [°C] ff [km/u] ff [kn] fx [km/u] fx [kn] dd ppp [hPa] vv [km] rr [mm]
20.05.2019 06:00:00 11,9 7,8 8,6 18 10 24 13 ZW 1007,4 60 0,0
20.05.2019 05:00:00 12,8 7,7 9,4 16 8 32 17 WZW 1007,3 60 0,0
20.05.2019 04:00:00 12,2 8,3 9,2 18 10 29 15 WZW 1007,6 60 0,0
20.05.2019 03:00:00 12,4 8,7 9,1 18 10 27 14 ZW 1008,1 60 0,0
20.05.2019 02:00:00 12,6 8,9 8,9 14 8 22 12 WZW 1008,4 57 0,0
20.05.2019 01:00:00 12,2 9,0 9,3 13 7 23 13 WZW 1008,6 54 0,0
20.05.2019 00:00:00 12,8 9,6 9,8 18 10 27 14 ZW 1008,9 49 0,0
19.05.2019 23:00:00 13,1 9,7 10,8 17 9 31 17 ZW 1009,0 47 0,0
19.05.2019 22:00:00 13,4 9,8 11,2 18 10 30 16 WZW 1008,7 47 0,0
19.05.2019 21:00:00 14,1 9,9 12,5 19 10 37 20 WZW 1008,3 49 0,0
19.05.2019 20:00:00 15,0 10,2 13,7 26 14 44 24 WZW 1008,1 53 0,0
19.05.2019 19:00:00 16,0 10,5 15,0 29 15 51 27 WZW 1007,8 41 0,0
19.05.2019 18:00:00 17,6 10,7 17,2 34 19 51 28 WZW 1007,5 20 0,0
19.05.2019 17:00:00 18,0 10,8 17,2 32 18 56 30 W 1007,0 38 0,0
19.05.2019 16:00:00 18,1 11,2 17,7 34 18 61 33 W 1006,8 38 0,0
19.05.2019 15:00:00 17,9 11,9 19,3 36 19 63 34 WZW 1006,8 44 0,0
19.05.2019 14:00:00 18,0 12,7 18,2 36 19 55 30 WZW 1006,8 50 0,0
19.05.2019 13:00:00 16,8 12,7 16,1 34 18 52 28 WZW 1006,9 60 0,0
19.05.2019 12:00:00 14,0 11,7 15,9 28 15 52 28 ZW 1007,0 41 1,4
19.05.2019 11:00:00 17,7 11,0 19,4 36 19 54 29 ZW 1006,3 38 0,0
19.05.2019 10:00:00 18,0 9,9 17,3 28 15 48 26 WZW 1006,1 20 0,0
19.05.2019 09:00:00 16,9 10,0 14,7 30 16 50 27 W 1005,9 45 0,0
19.05.2019 08:00:00 15,9 9,8 12,7 27 15 42 23 W 1005,9 34 0,0
19.05.2019 07:00:00 14,2 10,2 12,3 22 12 35 19 W 1006,0 52 0,0
19.05.2019 06:00:00 13,6 10,2 12,1 19 10 35 19 WZW 1005,8 52 0,0
19.05.2019 05:00:00 13,9 10,1 12,2 18 10 37 20 WZW 1005,8 53 0,0
19.05.2019 04:00:00 14,3 9,9 12,2 21 11 47 25 WZW 1006,0 57 0,0
19.05.2019 03:00:00 14,0 9,8 12,4 23 12 42 23 W 1006,1 60 0,0
19.05.2019 02:00:00 14,5 10,1 12,9 19 10 34 18 W 1006,8 43 0,0
19.05.2019 01:00:00 14,5 10,5 13,2 23 12 39 21 WZW 1007,6 49 0,0
19.05.2019 00:00:00 14,6 11,0 12,5 21 11 35 19 WZW 1007,8 60 0,0
18.05.2019 23:00:00 14,9 9,7 12,2 16 9 34 18 W 1007,5 60 0,0
18.05.2019 22:00:00 14,4 10,6 12,5 15 8 27 14 WZW 1007,1 60 0,0
18.05.2019 21:00:00 15,0 11,0 13,0 17 9 36 19 ZW 1006,5 57 0,0
18.05.2019 20:00:00 16,1 10,4 14,4 16 9 37 20 W 1005,6 60 0,0
18.05.2019 19:00:00 17,3 11,3 16,6 19 10 43 23 W 1005,1 56 0,0
18.05.2019 18:00:00 17,6 12,3 17,4 24 13 44 24 WZW 1004,6 50 0,0
18.05.2019 17:00:00 17,6 12,9 18,1 28 15 51 27 W 1004,4 45 0,0
18.05.2019 16:00:00 19,2 12,9 20,4 34 18 52 28 WZW 1003,8 25 0,0
18.05.2019 15:00:00 19,9 13,4 18,8 30 16 50 27 WZW 1003,9 25 0,0
18.05.2019 14:00:00 18,1 13,4 18,2 33 18 47 26 WZW 1003,6 24 0,0
18.05.2019 13:00:00 19,2 14,5 17,2 31 17 47 25 ZW 1003,2 19 0,0
18.05.2019 12:00:00 17,4 13,7 17,5 23 12 38 21 WZW 1003,0 43 0,0
18.05.2019 11:00:00 16,5 14,1 16,5 26 14 40 22 WZW 1002,7 20 0,2
18.05.2019 10:00:00 16,6 13,9 16,3 13 7 24 13 WZW 1002,0 14 0,0
18.05.2019 09:00:00 15,5 14,0 15,4 16 9 27 15 ZZW 1001,8 20 0,0
18.05.2019 08:00:00 14,5 13,7 10,9 8 5 14 8 WZW 1001,3 19 0,2
18.05.2019 07:00:00 11,6 10,8 8,0 4 2 7 4 NO 1001,0 10 0,0
18.05.2019 06:00:00 9,8 9,0 7,6 3 2 6 3 ZZO 1000,9 9 0,0
18.05.2019 05:00:00 10,1 9,2 8,3 0 0 9 5 N 1001,0 7 0,0
18.05.2019 04:00:00 11,1 10,2 8,2 5 3 8 4 NO 1001,4 12 0,0
18.05.2019 03:00:00 11,3 10,4 7,3 4 2 6 3 NNO 1001,9 13 0,0
18.05.2019 02:00:00 11,4 10,0 8,9 3 1 9 5 N 1002,3 8 0,0
18.05.2019 01:00:00 12,8 11,2 12,0 4 2 23 13 NO 1002,8 44 1,2
18.05.2019 00:00:00 13,3 10,7 13,4 21 11 42 23 WNW 1003,0 0,6 -
17.05.2019 23:00:00 14,8 13,0 13,9 12 7 32 18 NO 1002,9 16 0,0
17.05.2019 22:00:00 15,0 13,2 14,0 16 9 32 18 NO 1003,0 19 0,0
17.05.2019 21:00:00 14,5 13,2 13,7 14 7 31 17 NO 1003,5 23 1,0
17.05.2019 20:00:00 14,2 12,8 13,6 21 11 37 20 ONO 1003,4 2,8 4,0
17.05.2019 19:00:00 15,0 11,9 13,8 23 12 48 26 ONO 1003,8 43 0,0
17.05.2019 18:00:00 15,6 11,2 15,1 24 13 53 29 ONO 1004,8 54 0,0
17.05.2019 17:00:00 15,9 10,6 15,9 26 14 56 31 ONO 1005,5 57 0,0
17.05.2019 16:00:00 16,5 10,1 17,0 29 15 56 30 ONO 1005,9 41 0,0
17.05.2019 15:00:00 17,1 9,5 18,2 31 17 58 31 ONO 1006,3 48 0,0
17.05.2019 14:00:00 16,8 9,9 17,1 33 18 63 34 ONO 1006,4 47 0,0
17.05.2019 13:00:00 16,4 8,9 16,6 29 16 54 29 ONO 1007,4 52 0,0
17.05.2019 12:00:00 16,7 8,6 18,2 29 15 53 28 ONO 1007,6 59 0,0
17.05.2019 11:00:00 17,2 8,9 20,1 27 15 55 30 ONO 1007,7 60 0,0
17.05.2019 10:00:00 17,8 8,9 17,1 24 13 52 28 O 1008,0 60 0,0
17.05.2019 09:00:00 17,0 8,7 13,8 25 13 43 23 ONO 1008,2 60 0,0
17.05.2019 08:00:00 14,9 7,9 10,4 22 12 38 20 ONO 1008,6 45 0,0
17.05.2019 07:00:00 13,1 7,1 9,0 19 10 31 17 ONO 1008,9 38 0,0
17.05.2019 06:00:00 10,9 7,0 8,9 14 7 24 13 ONO 1008,8 60 0,0
17.05.2019 05:00:00 10,2 7,6 8,5 11 6 22 12 ONO 1009,1 59 0,0
17.05.2019 04:00:00 10,0 7,8 8,8 11 6 16 8 ONO 1009,7 58 0,0
17.05.2019 03:00:00 11,4 8,3 7,9 10 6 19 11 O 1010,1 52 0,0
17.05.2019 02:00:00 9,9 8,0 6,5 7 4 10 5 ONO 1010,7 48 0,0
17.05.2019 01:00:00 9,7 8,0 5,4 6 4 10 6 O 1011,3 48 0,0
17.05.2019 00:00:00 9,0 7,4 6,2 3 1 8 4 NO 1011,5 52 0,0
16.05.2019 23:00:00 10,4 8,0 7,1 6 4 11 6 N 1012,0 52 0,0
16.05.2019 22:00:00 10,8 8,4 8,9 9 5 12 6 NO 1011,7 56 0,0
16.05.2019 21:00:00 13,2 8,9 10,4 8 4 26 14 NW 1011,4 60 0,0
16.05.2019 20:00:00 15,9 9,1 13,6 18 10 37 20 ZW 1010,9 34 0,0
16.05.2019 19:00:00 17,4 9,0 15,9 26 14 45 24 ZW 1010,6 37 0,0
16.05.2019 18:00:00 18,0 8,8 18,7 29 15 45 25 WZW 1010,8 32 0,0
16.05.2019 17:00:00 19,3 8,0 23,4 29 16 41 22 WZW 1011,3 34 0,0
16.05.2019 16:00:00 20,1 7,8 27,6 24 13 42 23 W 1011,5 20 0,0
16.05.2019 15:00:00 19,6 8,0 30,8 29 16 42 23 WZW 1011,9 49 0,0
16.05.2019 14:00:00 18,9 7,0 32,4 17 9 33 18 WZW 1012,3 54 0,0
16.05.2019 13:00:00 17,7 6,8 24,8 15 8 30 16 ZZW 1012,8 60 0,0
16.05.2019 12:00:00 17,3 5,2 20,1 21 11 33 18 ZW 1013,0 60 0,0
16.05.2019 11:00:00 17,9 5,8 16,4 13 7 26 14 ZZW 1012,8 60 0,0
16.05.2019 10:00:00 16,8 6,0 14,6 13 7 23 12 ZZW 1012,7 60 0,0
16.05.2019 09:00:00 15,2 7,5 10,7 10 6 21 12 ZZW 1012,9 60 0,2
16.05.2019 08:00:00 10,5 7,6 4,6 4 2 7 4 WZW 1012,6 43 0,0
16.05.2019 07:00:00 7,1 5,9 2,9 3 2 11 6 N 1012,1 54 0,0
16.05.2019 06:00:00 6,2 5,2 3,4 7 4 16 9 NNO 1011,6 40 0,0
16.05.2019 05:00:00 7,2 6,0 5,2 5 3 19 10 NO 1011,8 34 0,0
16.05.2019 04:00:00 8,6 7,4 7,2 6 3 12 6 ZO 1011,7 37 0,0
16.05.2019 03:00:00 9,1 7,9 8,8 3 1 8 4 WNW 1011,7 35 0,0
16.05.2019 02:00:00 9,0 7,9 8,8 5 3 10 5 NO 1011,9 26 0,0
16.05.2019 01:00:00 8,9 7,7 8,6 3 1 14 7 WNW 1012,0 40 0,0
16.05.2019 00:00:00 8,6 7,4 7,8 3 2 8 4 W 1012,3 44 0,0
15.05.2019 23:00:00 8,5 7,1 7,4 2 1 8 5 Z 1012,2 53 0,0
15.05.2019 22:00:00 8,4 6,9 6,5 3 1 9 5 NO 1012,2 51 0,0
15.05.2019 21:00:00 8,8 7,1 7,3 5 3 8 4 ONO 1011,5 39 0,0
15.05.2019 20:00:00 10,6 7,5 9,3 3 2 13 7 O 1011,4 47 0,0
15.05.2019 19:00:00 9,6 6,9 9,3 11 6 38 20 ONO 1011,5 24 0,0
15.05.2019 18:00:00 11,8 5,6 9,8 6 4 35 19 ONO 1010,9 18 0,0
15.05.2019 17:00:00 12,4 5,5 10,3 18 10 38 20 O 1010,7 18 0,0
15.05.2019 16:00:00 13,1 6,2 12,1 23 12 44 24 ONO 1010,8 42 0,0
15.05.2019 15:00:00 10,1 7,5 8,4 24 13 48 26 ONO 1011,1 47 0,2
15.05.2019 14:00:00 8,7 6,7 8,3 23 13 41 22 ONO 1011,4 7 0,2
15.05.2019 13:00:00 8,2 6,2 7,6 13 7 39 21 ONO 1012,1 14 0,5
15.05.2019 12:00:00 7,6 5,9 6,6 20 11 42 23 ONO 1012,4 9 1,2
15.05.2019 11:00:00 7,1 5,2 6,2 29 16 58 31 ONO 1012,0 6 2,2
15.05.2019 10:00:00 7,0 4,6 6,0 36 19 66 36 NO 1011,8 25 1,2
15.05.2019 09:00:00 7,1 4,6 6,3 34 19 71 38 NO 1012,4 15 1,0
15.05.2019 08:00:00 8,7 4,5 7,9 37 20 64 34 NO 1011,5 50 0,0
15.05.2019 07:00:00 11,5 3,0 10,9 26 14 53 28 ONO 1011,2 60 0,0
15.05.2019 06:00:00 12,7 1,4 11,0 22 12 36 20 ONO 1011,4 60 0,0
15.05.2019 05:00:00 12,8 0,8 11,1 19 11 42 23 NO 1011,9 60 0,0
15.05.2019 04:00:00 12,6 2,7 10,5 22 12 43 23 ONO 1012,6 60 0,0
15.05.2019 03:00:00 12,0 4,5 10,5 21 11 36 19 NO 1013,3 59 0,0
15.05.2019 02:00:00 12,7 6,3 10,8 19 10 32 17 NO 1013,8 55 0,0
15.05.2019 01:00:00 12,5 6,7 10,7 19 10 33 18 ONO 1014,6 52 0,0
15.05.2019 00:00:00 12,5 7,8 11,3 19 11 31 17 ONO 1015,1 47 0,0
14.05.2019 23:00:00 13,3 11,5 12,8 11 6 22 12 ONO 1015,6 44 0,0
14.05.2019 22:00:00 13,5 11,7 13,4 7 4 16 8 NO 1015,2 49 0,0
14.05.2019 21:00:00 14,1 11,4 13,9 9 5 15 8 NO 1014,9 57 0,0
14.05.2019 20:00:00 14,7 11,5 15,0 6 3 17 9 ONO 1014,5 60 0,2
14.05.2019 19:00:00 16,0 12,0 16,0 10 5 16 8 NO 1014,2 7 0,0
14.05.2019 18:00:00 17,1 8,8 16,9 9 5 14 8 WZW 1013,9 56 0,0
14.05.2019 17:00:00 16,9 9,3 17,4 8 4 22 12 WZW 1014,2 59 0,0
14.05.2019 16:00:00 16,8 10,9 17,5 11 6 26 14 ZZW 1014,4 54 0,0
14.05.2019 15:00:00 18,1 10,7 19,4 18 10 36 19 ZZW 1014,4 51 0,0
14.05.2019 14:00:00 18,9 10,7 21,3 18 10 32 17 ZZW 1014,6 43 0,0
14.05.2019 13:00:00 18,2 9,5 20,4 17 9 34 19 ZW 1014,7 52 0,0
14.05.2019 12:00:00 19,2 9,4 23,1 12 7 23 12 ZW 1014,5 55 0,0
14.05.2019 11:00:00 19,7 8,7 21,2 13 7 38 20 W 1014,6 20 0,0
14.05.2019 10:00:00 19,3 7,4 17,3 10 5 23 12 NW 1015,0 20 0,0
14.05.2019 09:00:00 17,5 7,5 13,0 5 3 21 11 N 1015,3 60 0,0
14.05.2019 08:00:00 14,6 7,6 9,7 6 3 14 8 ONO 1015,2 53 0,0
14.05.2019 07:00:00 13,7 6,8 8,2 4 2 18 10 NNW 1015,1 47 0,0
14.05.2019 06:00:00 12,3 7,0 6,7 14 8 21 11 ONO 1015,0 60 0,0

tt = temperatuur
td = dauwpunt
tt 5cm = temperatuur 5cm
ff = windsnelheid
fx = windstoten
dd = windrichting
ppp = luchtdruk
vv = zicht
rr = neerslag

Weerstations in de omgeving